OpenBCM V1.08-5-g2f4a (Linux)

Packet Radio Mailbox

IZ3LSV

[San Dona' di P. JN]

 Login: GUEST





  
I0OJJ  > KEPS     30.11.24 09:14l 370 Lines 17642 Bytes #159 (0) @ AMSAT
BID : ORB24331.1
Read: GUEST
Subj: 2Line Orbital Elements 24331.AMSAT
Path: IZ3LSV<ED1ZAC<GB7CIP<I0OJJ
Sent: 241126/0345z @:I0OJJ.ITA.EU [Rome] obcm1.08-6-g5b69
From: I0OJJ @ I0OJJ.ITA.EU (Gustavo)
To:   KEPS @ AMSAT
X-Info: This message was generated automatically


QST de W1STR

AMSAT Orbital Elements for Amateur Satellites in TLE Format
From Orbital Analysis Office
New England Sci-Tech STEM Education Center
Natick, MA November 26, 2024
To all radio amateurs


These element sets describe the orbits of various satellites 
in use by the amateur radio community. For details see:
www.amsat.org/keplerian-elements-formats/

A daily update of element sets is available at:
www.amsat.org/tle/daily-bulletin.txt
or without bulletin text:
www.amsat.org/tle/dailytle.txt


AO-07
1 07530U 74089B   24330.51457177 -.00000014  00000-0  20427-3 0  9996
2 07530 101.9897 326.7374 0012313 135.5108 346.4682 12.53682926289496
UO-11
1 14781U 84021B   24330.41805760  .00003820  00000-0  42083-3 0  9992
2 14781  97.7279 295.1784 0006155 265.5500  94.5014 14.88098377172457
AO-27
1 22825U 93061C   24330.12375757  .00000350  00000-0  15126-3 0  9993
2 22825  98.7678  24.4169 0007863 335.1148  24.9654 14.30662972625622
FO-29
1 24278U 96046B   24330.74831822  .00000001  00000-0  34221-4 0  9992
2 24278  98.5865 244.2472 0350830 129.7155 233.5471 13.53222874396538
NOAA-15
1 25338U 98030A   24330.68025226  .00000465  00000-0  20950-3 0  9998
2 25338  98.5553 354.3521 0009744 207.2805 152.7865 14.26805406380460
GO-32
1 25397U 98043D   24330.41013123  .00000349  00000-0  17142-3 0  9991
2 25397  98.9457 299.7316 0002284  68.5916 291.5505 14.24196427370364
ISS
1 25544U 98067A   24330.92708292 -.00027824  00000-0 -48388-3 0  9990
2 25544  51.6371 234.0846 0006317 266.5831 192.2410 15.49824909483634
NO-44
1 26931U 01043C   24330.33666539  .00000735  00000-0  30737-3 0  9990
2 26931  67.0509 275.1488 0007128 261.7776  98.2518 14.31511518209014
SO-50
1 27607U 02058C   24330.73798598  .00004054  00000-0  54317-3 0  9991
2 27607  64.5546  84.5039 0032679  29.7835 330.5121 14.80367942180439
CO-55
1 27844U 03031E   24329.98859459  .00000927  00000-0  42538-3 0  9992
2 27844  98.6785 334.8333 0010533  42.6136 317.5858 14.23657132110666
CO-57
1 27848U 03031J   24329.98876051  .00000785  00000-0  36745-3 0  9998
2 27848  98.6815 334.9803 0010590  58.2687 301.9522 14.23042027110402
RS-22
1 27939U 03042A   24330.75721262  .00003706  00000-0  60865-3 0  9997
2 27939  98.3067 129.8544 0010636 270.0702 204.8890 14.71239372132020
NOAA-18
1 28654U 05018A   24330.69102418  .00000474  00000-0  27569-3 0  9999
2 28654  98.8627  46.2307 0013558 328.5503  31.4857 14.13430944  6071
CO-58
1 28895U 05043F   24330.32062583  .00005725  00000-0  97356-3 0  9997
2 28895  98.2226 106.7802 0014768 205.4247 154.6233 14.69432572 18104
CO-65
1 32785U 08021C   24330.55781417  .00012041  00000-0  95821-3 0  9992
2 32785  97.7710 295.1105 0012069 152.9011 207.2845 15.00493327899646
AAUSAT2
1 32788U 08021F   24330.67780782  .00074170  00000-0  22222-2 0  9997
2 32788  97.6045 313.1405 0004312  36.2948 323.8586 15.34215975903021
CO-66
1 32791U 08021J   24330.38429130  .00023347  00000-0  14182-2 0  9992
2 32791  97.7099 301.4988 0007364 106.4193 253.7846 15.10468105900872
RS-30
1 32953U 08025A   24330.67605727  .00000062  00000-0  37353-3 0  9991
2 32953  82.5038 349.0427 0020633 111.9212 248.4063 12.43153834749191
PRISM
1 33493U 09002B   24330.12082996  .00077299  00000-0  20981-2 0  9998
2 33493  98.1807  33.2458 0008054  49.5060 310.6883 15.37278564863591
NOAA-19
1 33591U 09005A   24330.66606705  .00000468  00000-0  27430-3 0  9990
2 33591  99.0272  28.0225 0013643 193.1806 166.9011 14.13209400814434
SRMSAT
1 37841U 11058D   24330.13591226  .00000683  00000-0  22798-3 0  9997
2 37841  19.9720 263.1995 0011885  64.9657  70.6305 14.11291825677328
RS-40
1 38735U 12041C   24330.60959765  .00000028  00000-0  13526-3 0  9993
2 38735  82.4772  69.2276 0017061 224.4038 135.5674 12.42620969559223
ZACUBE-1
1 39417U 13066B   24330.40550629  .00015109  00000-0  14295-2 0  9992
2 39417  97.7544 283.2932 0047309 348.9259  11.0914 14.92890476595605
Delfi-N3xt
1 39428U 13066N   24330.34773627  .00019830  00000-0  22557-2 0  9997
2 39428  97.8354 244.8773 0090920 285.4033  73.7151 14.83265817589937
GOMX-1
1 39430U 13066Q   24330.72002190  .00004525  00000-0  72543-3 0  9998
2 39430  97.7059 195.2851 0137495  98.2876 263.3947 14.65981645586695
LO-74
1 39440U 13066AA  24330.58056160  .00009973  00000-0  10842-2 0  9994
2 39440  97.8287 271.2088 0068014 104.8464 256.0298 14.86567056592283
AO-73
1 39444U 13066AE  24330.40409205  .00018385  00000-0  15711-2 0  9998
2 39444  97.7389 286.9463 0043355 326.5042  33.3439 14.96960700594778
DTUSAT-2
1 40030U 14033W   24330.33810298  .00017613  00000-0  13063-2 0  9997
2 40030  98.0319 287.7315 0011213  18.2391 341.9233 15.03098046566866
EO-80
1 40032U 14033Y   24330.43528475  .00017356  00000-0  12858-2 0  9998
2 40032  98.0208 287.7447 0008061 312.6924  47.3621 15.03168003567377
XW-2C
1 40906U 15049H   24330.69156313  .00129036  00000-0  12591-2 0  9995
2 40906  97.4598 353.7614 0007089  79.6194 280.5865 15.65762693509516
LILACSAT-2
1 40908U 15049K   24330.72790796  .00019530  00000-0  63271-3 0  9999
2 40908  97.5206 341.1819 0012361 132.4194 227.8095 15.31981497508178
IO-86
1 40931U 15052B   24322.18265442  .00001592  00000-0  12634-3 0  9991
2 40931   6.0008 339.1587 0012218  92.8814 267.2712 14.78351066494134
ChubuSat-2
1 41338U 16012B   24330.65173733  .00012616  00000-0  71198-3 0  9991
2 41338  31.0004  69.0611 0010723  63.1676 297.0058 15.11887021482025
ChubuSat-3
1 41339U 16012C   24330.67551292  .00010852  00000-0  62885-3 0  9997
2 41339  31.0074  68.6721 0010758  65.4185 294.7573 15.10903620481992
Horyu-4
1 41340U 16012D   24330.35843392  .00032913  00000-0  12842-2 0  9998
2 41340  31.0025 359.5082 0009990 182.1499 177.9101 15.24696164482697
Lapan A3
1 41603U 16040E   24330.72256631  .00007031  00000-0  26393-3 0  9996
2 41603  97.1400 337.3324 0009695 243.5931 116.4314 15.27457098467867
Pratham
1 41783U 16059A   24330.49761672  .00002136  00000-0  39825-3 0  9990
2 41783  97.8304 342.2909 0030957 226.8715 132.9900 14.65688826436168
CAS-2T
1 41847U 16066G   24330.31334956  .00002765  00000-0  40348-3 0  9991
2 41847  98.4450  40.3949 0350762  51.8141 311.4096 14.42445938422712
CAS-4B
1 42759U 17034B   24330.63302739  .00045157  00000-0  11134-2 0  9991
2 42759  43.0156  27.4636 0013703   5.1328 354.9667 15.39739083412183
CAS-4A
1 42761U 17034D   24330.61697488  .00046464  00000-0  11339-2 0  9999
2 42761  43.0195  25.7293 0014198  14.2721 345.8535 15.40033691412194
D-SAT
1 42794U 17036AF  24330.48113764  .00018483  00000-0  11558-2 0  9995
2 42794  97.4949 306.9594 0100748 320.5139  38.8776 15.05276889404973
TechnoSat
1 42829U 17042E   24330.39521401  .00007503  00000-0  62049-3 0  9995
2 42829  97.3876 142.7678 0010949 252.0756 107.9275 14.99139240401303
AO-91
1 43017U 17073E   24330.60922765  .00015750  00000-0  87214-3 0  9995
2 43017  97.5520 200.7002 0196329 111.2911 250.9399 14.98876203379792
S-Net D
1 43186U 18014G   24330.29946576  .00011964  00000-0  77799-3 0  9999
2 43186  97.5754 229.5059 0009808 165.9175 194.2328 15.08101824372755
S-Net B
1 43187U 18014H   24330.23639647  .00011700  00000-0  76108-3 0  9993
2 43187  97.5763 229.4044 0010725 161.9892 198.1718 15.08087508372748
S-Net A
1 43188U 18014J   24330.30040979  .00011857  00000-0  77089-3 0  9998
2 43188  97.5767 229.5947 0010563 162.7869 197.3719 15.08104969372753
S-Net C
1 43189U 18014K   24330.30477005  .00012089  00000-0  78585-3 0  9993
2 43189  97.5787 229.5785 0012522 156.6202 203.5598 15.08088665371305
Ten-Koh
1 43677U 18084G   24330.42412933  .00007316  00000-0  61794-3 0  9995
2 43677  98.0794 129.1557 0012623 200.9069 159.1637 14.98359841330848
PO-101
1 43678U 18084H   24330.67966094  .00005018  00000-0  44465-3 0  9998
2 43678  98.0867 133.7476 0007967 207.5699 152.5100 14.96695835331069
QO-100
1 43700U 18090A   24330.01756265  .00000159  00000-0  00000-0 0  9991
2 43700   0.0285  95.6286 0002228 188.6850 172.3052  1.00275330 21977
MinXSS-2
1 43758U 18099A   24330.10472884  .00024737  00000-0  12755-2 0  9995
2 43758  97.5335  30.5293 0015245 121.6462 238.6260 15.16246405327106
AO-95
1 43770U 18099N   24330.60318625  .00017962  00000-0  10720-2 0  9998
2 43770  97.5245  25.3436 0012575 164.7559 195.4052 15.11119298326897
RANGE-B
1 43772U 18099Q   24330.11230814  .00030855  00000-0  14951-2 0  9995
2 43772  97.5039  29.2135 0005185  74.3202 285.8604 15.18466479327069
RANGE-A
1 43773U 18099R   24330.39611555  .00011109  00000-0  77053-3 0  9995
2 43773  97.4815  18.5823 0013329 138.3056 221.9189 15.05689151326667
MOVE-II
1 43780U 18099Y   24330.17125273  .00069984  00000-0  23189-2 0  9990
2 43780  97.4989  32.9365 0005220 131.0185 229.1508 15.31008271327418
SNUSat 2
1 43782U 18099AA  24330.14621253  .00014224  00000-0  88944-3 0  9996
2 43782  97.4932  23.0996 0014852 110.1641 250.1187 15.09444550326814
SnugLite
1 43784U 18099AC  24330.14209578  .00019755  00000-0  11720-2 0  9991
2 43784  97.4745  22.4037 0005296 111.4108 248.7688 15.11367995326900
ITASat 1
1 43786U 18099AE  24330.37503032  .00016243  00000-0  10427-2 0  9992
2 43786  97.4890  23.3139 0016156 158.4370 201.7542 15.08435872326831
EAGLET 1
1 43790U 18099AJ  24330.42466488  .00011081  00000-0  76353-3 0  9992
2 43790  97.5095  23.7787 0013853 136.9785 223.2528 15.05932079326515
ESEO
1 43792U 18099AL  24330.60199135  .00004576  00000-0  36075-3 0  9994
2 43792  97.4873  19.5884 0009899 100.5902 259.6438 15.01199165326402
CSIM
1 43793U 18099AM  24330.14148732  .00074599  00000-0  25114-2 0  9994
2 43793  97.5131  34.7423 0009165 109.3581 250.8651 15.30445679327255
